Location: Campestrin
(46.4667°N, 11.7167°E)
Time: 15:37:30
(UTC+00:00)

CZ-2C R/B - Pass Details

Date: 18 April 2021
Orbit: 784 x 871 km, 98.2° (Epoch: 06 May)

Event Time Altitude Azimuth Distance (km) Brightness Sun altitude
Rises 18:47:30 0° 9° (N) 3,286 6.0 -7.6°
Reaches altitude 10° 18:49:52 10° 5° (N) 2,356 5.3 -8.0°
Maximum altitude 18:54:53 52° 290° (WNW) 978 3.6 -8.8°
Drops below altitude 10° 18:59:57 10° 215° (SW) 2,371 5.1 -9.6°
Sets 19:02:20 0° 210° (SSW) 3,308 5.8 -9.9°
